Terminal Aerodrome Forecast
Issued by NWS Charleston, WV

Current Version | Previous Version | Text Only | Print | Product List | Glossary Off
Versions: 1 2 3 4 5 6 7 8 9 10 11 12 13 14 15 16 17 18 19 20 21 22 23 24 25 26 27 28 29 30 31 32 33 34 35

000
FTUS41 KRLX 181900 AAA
TAFCRW
TAF AMD
KCRW 181935Z 1820/1918 24008KT P6SM BKN017 BKN035 OVC050
     FM191100 30004KT 6SM BR SCT015
     FM191400 28004KT P6SM SCT025=

USA.gov is the U.S. government's official web portal to all federal, state and local government web resources and services.